Location: Apeadero de Camorritos
(40.7667°N, 4.0500°W)
Time: 06:31:09
(UTC+00:00)

Daily predictions for brighter satellites

Satellite Brightness Start Highest point End
(mag) Time Altitude Azimuth Time Altitude Azimuth Time Altitude Azimuth
Iridium 4 Rocket 3.5 18:37:48 10° SSE 18:42:34 62° E 18:47:50 10° N
YAOGAN 1 2.7 18:39:51 10° SSE 18:44:04 56° ENE 18:48:19 10° N
Cosmos 1975 2.9 18:40:04 10° S 18:44:05 63° E 18:48:08 10° NNE
CENTAUR R/B 4.5 18:38:42 10° NNW 18:44:32 22° NNE 18:50:48 10° ENE
SKYMED 2 4.4 18:41:56 10° N 18:46:14 58° WNW 18:50:28 10° SSW
GP-B 3.2 18:43:40 10° N 18:48:08 84° W 18:52:34 10° S
H-2A R/B 2.6 18:43:50 10° SE 18:48:19 36° ENE 18:52:55 10° N
CZ-4 R/B 1.5 18:45:12 10° SSE 18:49:25 79° ENE 18:53:38 10° N
Cosmos 1437 3.0 18:49:01 10° N 18:51:52 39° ENE 18:54:41 10° SSE
ISS -3.6 18:48:37 10° SW 18:51:56 57° SE 18:55:15 10° ENE
Cosmos 1842 3.2 18:53:52 10° N 18:57:43 69° E 19:01:34 10° SSE
ARGOS 3.7 18:56:56 10° SE 19:01:50 38° ENE 19:06:46 10° N
Cosmos 1782 Rocket 3.5 18:59:51 10° S 19:04:15 85° E 19:08:42 10° N
Cosmos 1025 Rocket 4.2 19:03:22 10° NNE 19:06:56 24° ENE 19:10:02 12° SE
CZ-2C R/B 3.6 19:03:21 10° NE 19:07:59 26° E 19:12:38 10° SSE
Cosmos 1707 3.4 19:06:46 10° NNE 19:10:15 32° ENE 19:13:43 10° SE
DELTA 2 R/B (1) 3.9 19:05:08 10° W 19:10:35 59° SSW 19:15:16 14° ESE
USA 186 3.1 19:13:02 18° E 19:13:56 21° ENE 19:16:24 10° NNE
Ariane Rocket 3.8 19:12:56 12° SE 19:16:52 31° ENE 19:21:17 10° N
SJ-6B 4.1 19:16:15 18° E 19:17:15 20° ENE 19:20:00 10° NNE
CZ-2C R/B 3.1 19:12:30 10° SSE 19:17:41 89° W 19:23:12 10° NNW
Cosmos 2263 Rocket 3.1 19:14:18 10° SW 19:19:43 52° WNW 19:25:11 10° NNE
NOSS 2-2 (C) 3.2 19:18:54 10° SW 19:22:24 76° NW 19:26:08 10° NNE
HJ-1C 3.2 19:20:05 10° SSE 19:23:21 89° ESE 19:26:40 10° NNW
Cosmos 2084 Rocket 3.8 19:20:05 10° NW 19:24:32 70° WSW 19:29:03 10° SSE
Cosmos 1844 Rocket 3.1 19:21:32 10° S 19:26:33 36° ESE 19:31:37 10° NE
Cosmos 2034 Rocket 4.3 19:20:57 10° SSE 19:26:54 44° E 19:32:52 10° NNE
Cosmos 2298 Rocket 4.2 19:23:56 10° S 19:29:01 49° ESE 19:34:09 10° NNE
Cosmos 1975 Rocket 3.3 19:26:30 10° NNW 19:30:49 70° W 19:35:05 10° S
Cosmos 1943 3.8 19:34:08 10° NNW 19:39:40 58° WSW 19:45:12 10° S
Resurs 01 Rocket 3.5 19:42:54 16° NE 19:42:54 16° NE 19:44:57 10° NNE
Lacrosse 5 rocket 4.2 19:43:12 10° NNW 19:44:39 11° NNW 19:46:06 10° N
Cosmos 1867 3.5 19:40:10 10° NNW 19:45:40 82° ENE 19:49:02 24° SE
MetOp-A 4.4 19:42:59 25° SE 19:45:44 45° ENE 19:50:50 10° N
USA 234 3.4 19:39:48 10° ENE 19:46:07 49° SE 19:52:25 10° SSW
Sich 1 Rocket 4.4 19:42:47 10° SSW 19:47:10 55° W 19:51:38 10° N
Cosmos 372 Rocket 4.2 19:42:58 10° SSW 19:48:12 76° WNW 19:53:27 10° NNE
OBJECT-B 2.9 19:52:33 17° NNE 19:52:33 17° NNE 19:53:39 10° NNE
Meteor 1-15 Rocket 4.4 19:45:57 10° SSE 19:51:18 49° E 19:56:46 10° NNE
IRS-1A Rocket 4.3 19:46:57 16° SSE 19:51:40 67° ENE 19:57:30 10° N
MOS 1 Rocket 4.0 19:50:44 10° N 19:55:03 51° WNW 19:59:11 10° SSW
Meteor 1-12 Rocket 4.5 19:50:14 10° SSW 19:56:10 77° W 20:02:01 10° N
Cosmos 2150 Rocket 4.0 19:53:19 10° SSW 19:58:40 83° ESE 20:04:08 10° NNE
DMSP B5D2-2 4.0 19:56:30 10° NNE 20:01:48 68° ESE 20:07:02 10° S
BREEZE-M TANK 3.4 19:52:07 10° WSW 20:02:48 76° NNW 20:04:38 33° ENE
Abrixas rocket 4.2 20:00:55 10° NW 20:02:55 17° N 20:03:00 17° N
Okean 2 Rocket 3.8 20:01:12 10° SSW 20:05:37 55° W 20:10:02 10° N
Cosmos 2285 Rocket 4.0 20:00:19 10° S 20:06:25 56° ESE 20:12:36 10° NNE
Cosmos 1125 Rocket 3.4 20:01:18 10° S 20:06:31 65° ESE 20:11:48 10° NNE
Okean 1 Rocket 3.7 20:08:19 39° NE 20:08:19 39° NE 20:11:36 10° NNE
SL-08 RB Rocket 3.9 20:04:40 18° S 20:08:05 69° WSW 20:12:39 10° NNW
USA 102 4.5 20:09:16 37° S 20:11:43 64° WSW 20:14:41 15° NW
CZ-2C R/B 2.6 20:12:17 10° WSW 20:14:20 24° SW 20:14:20 24° SW
ATLAS 5 CENTAUR R/B 4.2 20:13:32 10° WNW 20:17:26 39° SW 20:29:33 10° SSE
Resurs 1-3 3.9 20:18:56 50° NE 20:18:56 50° NE 20:22:37 10° N
Cosmos 1092 Rocket 3.9 20:18:10 10° N 20:24:17 66° E 20:25:37 52° SE
ATLAS 2AS CENTAUR R/B 3.1 20:16:52 10° S 20:24:19 48° ESE 20:31:50 10° NE
Meteor 2-13 Rocket 4.3 20:18:29 10° N 20:24:39 69° E 20:26:06 52° SE
Cosmos 468 4.5 20:19:30 10° NNW 20:24:52 86° WSW 20:26:08 54° SSE
Meteor 2-5 Rocket 3.8 20:19:49 10° N 20:25:23 55° ENE 20:25:27 55° E
Cosmos 2195 Rocket 4.4 20:20:20 10° N 20:26:32 60° E 20:27:20 56° ESE
H-2A R/B 4.1 20:23:48 10° SSW 20:27:49 25° W 20:31:55 10° NW
Cosmos 1674 3.5 20:24:12 10° N 20:27:00 46° N 20:27:00 46° N
ISS -1.7 20:26:08 10° W 20:28:57 24° NNW 20:29:08 24° NNW
Milstar 3 Cent rocket 3.9 20:25:15 10° SW 20:28:03 17° S 20:28:03 17° S
Cosmos 2026 Rocket 4.1 20:24:15 10° N 20:30:31 56° E 20:30:53 55° E
BREEZE-M DEB (TANK) 4.4 20:28:17 10° WSW 20:31:52 59° NNW 20:44:35 10° NE
Cosmos 2082 Rocket 4.3 20:30:42 10° NNE 20:32:16 12° NE 20:32:16 12° NE
Cosmos 1536 Rocket 4.4 20:30:37 10° NNW 20:34:54 48° W 20:36:10 37° SW
CENTAUR R/B 3.3 20:28:46 10° NNW 20:36:52 64° NE 20:39:10 49° ESE
Cosmos 1048 Rocket 4.2 20:32:05 10° NNW 20:37:22 70° WSW 20:38:19 57° SSW
Cosmos 1428 Rocket 4.4 20:35:59 10° N 20:42:07 64° ENE 20:42:07 64° ENE
ATLAS 3B R/B 3.9 20:37:49 10° NNW 20:43:34 27° NE 20:44:10 27° NE
COSMOS 2406 4.4 20:39:19 10° N 20:43:10 29° NE 20:43:10 29° NE
Meteor 1-24 Rocket 4.0 20:42:39 10° N 20:47:08 54° NNE 20:47:08 54° NNE
USA 238 DEB 3.8 20:41:02 10° NW 20:48:20 83° WSW 20:49:58 59° SSE
CZ-2C R/B 3.9 20:43:11 10° N 20:48:22 42° WNW 20:53:35 10° SW
USA 238 3.8 20:41:08 10° NW 20:48:27 84° WSW 20:50:02 59° SSE
Exosat Rocket 4.2 20:47:08 10° SW 20:52:49 54° WNW 20:57:44 10° NNE
Cosmos 1844 Rocket 4.3 21:05:31 10° WSW 21:10:26 32° WNW 21:15:25 10° N
SPOT 3 Rocket 4.4 21:13:37 46° WNW 21:13:37 46° WNW 21:18:00 10° NNW
Resurs 01 Rocket 3.6 21:20:28 27° NW 21:20:28 27° NW 21:22:40 10° NNW
BREEZE-M DEB (TANK) 4.5 21:18:17 10° WNW 21:22:53 53° SSW 21:23:06 53° SSW
Lacrosse 5 rocket 4.4 21:24:38 10° N 21:25:05 10° N 21:25:05 10° N
USA 234 3.9 21:24:43 20° NE 21:29:07 52° NNW 21:35:25 10° WSW
Cosmos 1833 Rocket 4.2 21:30:16 10° NNW 21:33:07 29° N 21:33:07 29° N
ATLAS 2AS CENTAUR R/B 3.9 22:07:52 10° WSW 22:15:25 45° NW 22:22:56 10° NNE
Cosmos 2082 Rocket 4.4 22:12:27 10° NNW 22:14:06 20° NNW 22:14:06 20° NNW
CENTAUR R/B 4.3 22:20:02 10° NW 22:26:21 34° W 22:26:21 34° W
ATLAS 3B R/B 4.1 22:27:58 10° NW 22:31:25 32° NW 22:31:25 32° NW
